Tracking 29892 objects as of 21-Nov-2024
HD Live streaming from Space Station
objects crossing your sky now

ARIANE 44P R/B

Track ARIANE 44P R/B now!


NORAD ID: 26488
Int'l Code: 2000-052B
Perigee: 392.1 km
Apogee: 34,864.5 km
Inclination: 6.8 °
Period: 616.7 minutes
Semi major axis: 23999 km
RCS: 22.6498 m2 (large)
Launch date: September 6, 2000
Source: France (FR)
Launch site: FRENCH GUIANA (FRGUI)

Note: This is a ROCKET BODY
Your satellite tracking list
Your tracking list is empty




NASA's NSSDC Master Catalog

Two Line Element Set (TLE):
1 26488U 00052B   24325.26101491  .00000589  00000-0  13085-2 0  9996
2 26488   6.8358 191.9071 7181978 316.4549   5.4843  2.33509855200197
Source of the keplerian elements: AFSPC